Back to catalog

COSMOS 886 DEB

AliveLEO
NORAD 9653·DEBRIS·🇷🇺 Russia

Launched Dec 27, 1976 from Baikonur Cosmodrome

Loading…

Next Passes (next 24 hours)

TLE

FreshSource: Space-Track

Epoch: Sep 14, 2026, 04:59 UTC

1 09653U 76126K   26257.20791969  .00001256  00000-0  50067-3 0  9995
2 09653  65.7691 336.5154 0777377 135.8403 230.7462 13.30613352355888

Track COSMOS 886 DEB in real time with AllMySat

Download on the App Store